Lakehurst NAES /Maxfield Field
KNEL : now visible

Airfield :











YOU CAN JOIN US ON...

 
LOGIN :

Register | Disclaimer

   EN    FR    IT 

 









Legend :    VFR   Marginal VFR   IFR   Intensive IFR   Very Intensive IFR
Visi :
Ceiling :
>= 8 km
>= 3000ft
5 to 8 km
1000 to 3000 ft
1500m to 5 km
500 to 1000 ft
800 to 1500m
200 to 500 ft
< 800m
< 200 ft
Symbols :   Thunderstorms  Fog  Heavy snow  Heavy precipitations  Wind > 20 kt






- Airport Elevation : 101 ft
- IATA code : NEL


KNEL - Lakehurst NAES /Maxfield Field

CURRENT METAR :
  • 080702Z AUTO 00000KT -RA BKN080 OVC110 04/03 A3009 RMK AO2 RAE0627B0647 SLP189 P0000 T00390028 $

EXPIRED METARs :
  • 080600Z AUTO 21004KT -RA OVC080 04/02 A3009 RMK AO2 RAB0528B0541E0542B0536UPB0542 SLP189 6//// T00390022 10056 20017 PNO $

TAF N/A
KZNY FIR / North America



MET'MAP, your aeronautical weather chart ! - Copyright ORBIFLY December 2007 - Disclaimer

ORBIFLY MET'MAP TEAM :

Programming & Development : Alexandra Zaïnal
Original concept : Baudouin d'Aumeries
Technical & hardware support : Manuel Goepfert
Assistance : Marc-Olivier Méhu




SOURCES & CREDITS :

   NOAA       Earth
Advisory